Location: ????????
(55.3939°N, 37.4780°E)
Time: 18:58:00
(UTC+00:00)

Cosmos 2026 Rocket - Pass Details

Date: 14 April 2026
Orbit: 939 x 999 km, 82.9° (Epoch: 19 May)

Event Time Altitude Azimuth Distance (km) Brightness Sun altitude
Rises 22:41:13 0° 349° (NNW) 3,652 8.0 -23.3°
Reaches altitude 10° 22:43:45 10° 352° (N) 2,710 7.2 -23.1°
Maximum altitude 22:49:55 65° 74° (ENE) 1,069 4.3 -22.8°
Enters shadow 22:53:27 27° 149° (SSE) 1,788 5.0 -22.6°
